Wind_Speed
15 19 20 21 21 24 27 26 27 28 29 30 30 28 26 27 26 27 26 25 28 31 35 38 41 38 39 33 32 27 28 24 30 26 24 22 19 19 17 17 17 16 15
19 18 20 22 23 25 29 31 33 34 34 34 35 33 28 26 27 26 27 26 27 28 32 37 38 38 39 32 31 23 21 19 20 25 23 22 20 16 18 20 17 17 18
19 24 28 29 31 33 35 38 39 40 37 36 38 34 32 30 28 26 25 26 22 24 29 35 39 38 36 36 32 32 24 24 25 25 24 22 17 13 13 11 16 18 17
14 16 19 21 23 26 29 32 34 35 38 39 36 34 33 31 30 27 24 26 25 25 25 30 31 37 41 33 35 38 22 22 21 22 22 19 14 10 10 11 14 18 18
32 32 33 33 33 32 30 30 31 33 37 41 36 33 34 31 27 28 27 26 27 26 25 25 29 32 33 31 34 36 25 23 22 20 19 17 16 16 15 14 13 16 18
41 43 43 44 44 43 40 38 37 33 30 29 28 28 30 33 31 26 28 27 28 19 24 23 32 34 36 36 37 26 26 25 22 19 18 16 16 14 14 13 14 15 15
45 46 46 46 45 43 43 45 45 41 39 41 42 38 34 35 35 29 25 27 27 27 25 30 33 35 29 29 26 25 24 21 14 13 16 15 13 9 6 6 7 10 12
45 44 43 42 38 38 41 43 43 40 40 41 42 44 45 45 43 31 25 26 28 32 35 34 31 33 26 27 23 22 22 19 16 13 10 9 9 6 3 2 4 6 11
47 51 54 56 58 59 51 42 38 38 39 38 35 34 36 33 32 30 25 24 26 31 32 25 26 25 28 27 23 26 22 19 16 14 12 13 9 5 1 4 7 10 13
51 48 43 45 36 34 35 33 34 36 37 34 34 36 34 30 27 27 25 23 22 27 28 23 26 26 25 23 20 22 22 22 21 20 16 13 10 6 5 5 8 11 12
42 40 46 39 43 45 45 44 38 30 33 34 36 34 34 27 26 22 24 22 23 14 31 28 26 25 24 23 22 22 22 22 22 19 13 11 12 11 8 9 11 13 16
43 44 40 38 35 36 29 29 29 36 31 31 30 32 30 28 26 28 18 22 21 29 22 31 23 24 27 26 25 23 21 21 20 20 16 14 12 11 12 14 17 16 16
39 39 37 36 35 35 34 31 28 31 30 29 30 32 30 29 28 28 26 19 17 22 24 26 17 30 28 27 29 27 25 24 26 23 20 18 15 11 14 18 19 16 16
34 34 33 33 32 33 32 32 31 37 33 31 32 28 25 25 27 22 22 23 24 21 24 30 35 32 28 32 29 22 25 27 28 30 28 22 18 18 17 17 19 14 17
33 34 33 32 31 30 30 30 32 31 31 27 27 27 25 26 26 24 23 25 24 29 21 22 32 36 33 29 27 26 25 30 34 32 32 27 24 22 19 18 17 16 20
33 35 35 33 30 31 29 29 30 34 37 37 31 26 25 24 18 17 15 18 25 24 31 25 26 30 33 32 31 31 31 29 33 34 31 28 26 24 21 19 19 19 22
34 33 32 31 29 29 28 31 30 28 27 30 32 33 32 27 26 22 20 22 15 19 25 30 23 28 29 30 28 26 25 26 27 24 25 26 23 22 22 20 19 20 22
31 30 28 27 25 24 25 26 29 29 25 26 24 36 39 38 36 28 23 21 21 19 13 25 27 25 30 29 30 28 28 29 28 25 25 23 20 21 19 18 18 18 19
29 26 23 23 23 21 20 21 23 25 25 26 21 20 32 39 40 39 36 31 25 23 21 14 26 25 25 28 27 28 28 27 27 25 24 20 18 17 14 17 16 15 13
26 24 24 24 23 22 21 20 21 22 23 24 25 22 20 25 31 36 44 41 37 33 27 20 21 26 22 22 22 20 23 24 23 21 17 15 14 14 14 16 14 11 10
23 21 25 21 23 22 20 20 19 19 21 21 21 19 22 24 29 32 42 45 44 40 33 26 16 27 25 22 21 18 24 22 23 22 20 17 17 19 19 16 13 10 14
20 21 22 21 21 18 15 17 17 14 14 17 17 18 22 20 22 29 36 46 44 41 37 33 19 24 27 24 24 22 21 22 21 18 18 18 17 15 18 17 12 9 14
17 19 19 20 16 17 16 16 10 1 3 7 11 13 19 22 23 21 23 30 41 41 38 36 25 24 28 21 19 20 19 16 15 18 17 11 9 13 19 17 12 14 13
15 17 19 20 19 17 17 17 17 10 6 5 8 11 16 19 22 19 17 20 28 36 38 40 31 26 24 20 21 20 16 17 17 14 12 10 11 16 19 14 15 17 15
15 15 17 19 19 20 18 16 15 14 12 8 7 6 9 19 21 17 16 20 24 30 37 42 35 27 24 26 27 19 19 21 21 20 16 15 14 16 15 16 17 17 21
15 15 16 16 18 20 18 16 15 13 11 10 8 7 8 18 18 16 15 17 25 28 30 40 39 31 26 26 26 21 18 20 26 26 27 21 17 17 17 17 20 20 17
Wind_Direction
276 259 257 258 260 272 272 271 279 284 290 297 307 312 308 301 303 304 289 279 266 258 257 257 258 259 258 250 250 246 242 232 237 256 224 234 247 259 270 277 270 249 256
274 260 263 265 267 268 274 278 283 286 290 295 299 304 307 302 300 302 301 287 277 263 253 250 252 255 251 244 247 213 201 204 210 233 236 238 247 251 267 255 238 257 259
278 283 284 280 277 277 277 279 279 283 288 292 296 300 303 304 304 299 304 294 277 267 257 256 254 254 251 249 238 212 215 223 220 224 234 246 244 245 247 246 254 258 260
273 274 274 277 275 274 277 277 276 276 279 289 288 293 297 300 300 305 301 293 278 271 269 256 255 253 254 245 229 230 231 235 233 234 234 229 214 216 233 244 260 265 270
295 291 287 286 286 283 281 276 272 273 276 279 278 284 291 294 298 298 301 289 290 274 271 264 259 256 246 242 235 224 238 233 231 218 204 199 205 217 224 236 249 267 273
295 291 293 294 287 283 284 283 274 271 267 264 266 269 277 287 287 294 297 285 281 282 267 266 268 259 251 241 235 235 239 227 221 219 215 201 200 218 239 253 263 270 280
296 296 295 295 293 291 288 283 275 274 274 272 272 271 273 279 278 277 285 281 263 263 275 264 262 253 245 241 226 220 217 219 224 223 211 214 226 218 213 237 263 276 290
288 287 287 288 287 286 287 280 276 276 273 272 269 272 275 273 269 269 272 279 266 262 261 262 258 232 233 223 205 201 203 205 211 208 190 184 157 147 140 20 343 324 335
290 289 288 289 287 288 284 270 266 270 270 268 273 276 278 275 263 256 261 273 265 259 263 231 218 217 206 202 201 196 205 210 192 176 164 164 163 169 235 331 352 334 332
296 293 288 293 290 280 271 275 274 266 262 265 272 277 286 268 251 251 251 270 263 251 218 231 237 202 205 203 203 198 195 196 186 179 181 189 195 210 249 310 311 307 315
300 287 291 285 280 277 275 268 272 258 254 262 273 276 282 265 256 245 240 252 239 247 229 229 194 199 205 194 194 196 195 195 200 200 197 210 225 236 267 299 299 290 289
298 296 291 288 286 278 276 273 266 268 261 259 265 272 271 255 255 240 241 238 240 236 229 213 200 209 202 203 205 204 207 212 218 225 223 237 254 275 289 294 289 282 284
297 294 292 289 283 277 269 268 274 267 258 254 258 263 254 255 257 252 235 226 227 236 227 217 194 196 207 211 215 221 214 213 228 232 244 252 261 275 276 279 275 287 290
298 295 292 288 284 282 276 270 266 260 260 261 259 248 237 245 248 247 239 232 231 239 221 223 224 222 228 225 225 226 228 231 229 235 246 253 259 258 268 276 275 282 292
302 299 297 294 288 280 277 269 261 264 254 251 249 246 238 244 247 249 245 234 235 237 233 227 215 215 218 222 220 217 225 232 235 235 240 245 252 255 264 270 271 272 279
308 305 302 298 290 286 279 271 263 251 247 250 242 238 242 234 233 233 234 233 231 236 232 228 225 221 218 218 219 217 222 228 232 236 236 242 246 252 261 267 268 269 276
311 309 305 298 290 279 275 273 272 271 262 255 243 231 227 217 221 221 219 217 207 225 227 226 225 221 217 219 214 219 219 225 232 235 239 241 243 247 253 265 263 267 275
322 319 311 305 297 287 278 267 264 266 262 258 249 231 229 224 229 222 212 217 212 212 212 218 220 221 218 222 222 227 229 231 236 238 241 243 241 245 251 258 266 270 279
330 333 327 315 307 299 287 273 262 257 258 256 253 241 229 226 231 229 229 228 220 215 219 208 214 217 218 221 222 226 228 229 233 237 240 233 231 236 247 265 264 260 285
346 346 340 330 320 307 296 283 271 258 252 247 243 236 228 214 217 220 220 223 225 221 211 212 199 207 207 212 208 211 216 215 223 222 217 218 229 238 254 260 240 258 281
354 0 356 335 340 328 317 302 286 270 256 243 237 225 224 215 212 213 217 219 221 226 216 208 197 195 202 206 205 205 211 216 223 231 230 230 247 255 262 233 231 239 287
4 5 2 5 2 356 354 339 309 281 258 242 233 221 215 219 211 214 216 218 219 223 219 209 198 189 190 192 197 203 202 219 227 223 226 232 245 246 239 222 227 253 306
18 16 16 17 13 7 4 11 22 331 237 217 200 196 196 202 204 215 216 217 218 219 213 201 191 185 192 188 194 201 206 202 201 206 212 213 226 236 229 218 243 276 276
20 19 20 22 26 27 19 21 40 63 92 145 171 188 195 194 193 202 204 209 212 213 209 195 189 175 183 190 201 202 210 216 218 210 215 228 246 260 219 231 244 254 265
25 22 23 26 28 35 40 33 36 53 67 105 136 174 190 200 196 200 193 199 202 207 203 195 190 183 180 196 208 214 220 230 244 246 224 247 258 217 221 248 229 236 256
31 27 26 27 31 36 44 57 55 59 72 75 86 108 147 178 188 200 200 194 197 201 202 195 189 192 184 193 206 216 230 235 239 241 239 245 224 218 243 233 254 265 257
Height
1449 1449 1448 1446 1446 1445 1444 1443 1443 1442 1442 1441 1440 1438 1436 1434 1433 1431 1430 1428 1427 1428 1428 1428 1429 1431 1430 1433 1437 1439 1437 1440 1439 1442 1449 1454 1452 1454 1454 1454 1457 1459 1461
1445 1443 1442 1441 1440 1438 1436 1435 1434 1433 1433 1433 1432 1431 1430 1428 1426 1424 1422 1421 1419 1419 1419 1419 1420 1422 1422 1427 1430 1432 1432 1435 1431 1438 1441 1446 1446 1447 1446 1448 1452 1455 1456
1440 1439 1437 1434 1432 1430 1428 1427 1426 1425 1424 1424 1423 1422 1422 1421 1419 1417 1415 1412 1411 1409 1409 1410 1411 1414 1415 1418 1424 1427 1429 1430 1430 1432 1438 1441 1439 1440 1442 1442 1445 1449 1450
1433 1432 1430 1428 1427 1424 1422 1420 1418 1416 1414 1413 1413 1413 1413 1412 1412 1410 1408 1405 1403 1402 1400 1400 1403 1407 1408 1414 1416 1421 1424 1426 1427 1430 1430 1431 1433 1436 1439 1441 1443 1445 1444
1426 1424 1421 1419 1417 1416 1414 1412 1409 1406 1406 1405 1403 1403 1403 1403 1403 1403 1401 1400 1397 1396 1396 1395 1397 1400 1404 1408 1409 1415 1420 1421 1424 1425 1426 1427 1430 1434 1435 1438 1440 1441 1440
1416 1413 1410 1408 1407 1405 1403 1402 1400 1397 1397 1396 1395 1394 1394 1394 1396 1396 1394 1392 1391 1391 1390 1390 1392 1391 1395 1400 1405 1410 1413 1418 1420 1421 1424 1425 1429 1433 1433 1434 1435 1435 1435
1405 1401 1398 1396 1393 1391 1389 1388 1387 1386 1386 1386 1385 1385 1385 1385 1388 1389 1388 1386 1385 1386 1384 1384 1384 1382 1388 1392 1397 1403 1409 1414 1417 1419 1421 1424 1426 1429 1429 1430 1431 1431 1431
1394 1389 1386 1384 1381 1378 1376 1375 1373 1373 1372 1373 1373 1373 1373 1374 1378 1380 1380 1379 1377 1378 1378 1376 1374 1376 1382 1389 1393 1399 1405 1410 1413 1416 1416 1417 1421 1425 1426 1428 1429 1428 1427
1383 1378 1374 1370 1365 1362 1359 1359 1359 1359 1360 1361 1360 1361 1361 1362 1365 1370 1371 1370 1368 1368 1368 1367 1368 1374 1380 1386 1390 1396 1400 1405 1407 1411 1415 1417 1420 1424 1428 1428 1425 1426 1427
1367 1362 1358 1354 1349 1348 1347 1346 1347 1345 1347 1349 1349 1350 1351 1352 1355 1359 1361 1362 1361 1362 1362 1362 1367 1370 1377 1382 1386 1390 1394 1403 1404 1408 1412 1417 1420 1420 1424 1423 1423 1424 1425
1354 1348 1344 1342 1338 1336 1335 1334 1335 1335 1335 1337 1339 1340 1341 1343 1346 1350 1353 1356 1357 1354 1356 1359 1362 1368 1375 1379 1384 1390 1394 1401 1407 1409 1410 1412 1416 1418 1418 1419 1419 1421 1422
1342 1335 1330 1328 1326 1324 1322 1322 1323 1324 1325 1326 1328 1329 1331 1335 1339 1342 1347 1349 1352 1354 1355 1356 1360 1363 1371 1376 1382 1387 1393 1398 1403 1407 1406 1407 1407 1408 1414 1416 1416 1417 1417
1330 1323 1319 1317 1315 1314 1313 1312 1313 1314 1316 1316 1318 1320 1321 1326 1330 1334 1340 1343 1346 1348 1350 1357 1355 1360 1368 1372 1378 1384 1389 1393 1399 1400 1400 1401 1404 1409 1413 1414 1415 1412 1412
1318 1313 1308 1305 1302 1302 1302 1301 1301 1304 1305 1306 1308 1310 1313 1317 1322 1326 1331 1336 1340 1343 1346 1351 1356 1359 1361 1368 1374 1377 1384 1388 1392 1395 1397 1400 1403 1406 1409 1411 1410 1407 1408
1309 1303 1299 1296 1293 1291 1291 1291 1291 1291 1295 1297 1299 1303 1306 1310 1314 1319 1323 1328 1333 1337 1339 1342 1347 1353 1358 1361 1367 1372 1378 1383 1387 1391 1394 1396 1399 1402 1404 1406 1404 1404 1404
1297 1293 1289 1286 1283 1281 1280 1279 1279 1280 1282 1286 1289 1294 1300 1304 1308 1312 1316 1319 1323 1329 1333 1336 1339 1344 1351 1356 1362 1368 1374 1378 1383 1387 1389 1391 1392 1395 1397 1399 1399 1399 1399
1291 1285 1280 1277 1274 1272 1271 1270 1269 1270 1271 1273 1277 1283 1289 1296 1300 1305 1310 1314 1317 1321 1324 1330 1334 1338 1345 1351 1357 1364 1369 1373 1378 1381 1384 1385 1388 1390 1392 1392 1393 1394 1394
1282 1277 1272 1268 1265 1262 1261 1261 1261 1262 1263 1264 1267 1272 1278 1285 1291 1297 1302 1307 1311 1317 1319 1324 1329 1334 1340 1347 1353 1359 1364 1369 1373 1375 1378 1380 1382 1384 1385 1386 1387 1388 1387
1276 1270 1266 1261 1258 1256 1254 1253 1253 1254 1255 1257 1260 1263 1268 1276 1283 1289 1294 1299 1305 1309 1315 1318 1323 1329 1335 1343 1348 1354 1358 1362 1367 1370 1372 1375 1376 1377 1379 1381 1382 1383 1381
1272 1267 1262 1256 1252 1249 1247 1245 1245 1245 1247 1249 1252 1256 1261 1268 1272 1277 1284 1290 1296 1303 1310 1316 1319 1324 1330 1338 1344 1348 1352 1356 1362 1364 1367 1369 1371 1373 1375 1376 1378 1378 1377
1270 1265 1260 1254 1250 1245 1242 1239 1237 1237 1239 1242 1245 1250 1255 1261 1267 1271 1275 1281 1289 1297 1305 1312 1317 1322 1328 1334 1339 1343 1348 1352 1356 1359 1362 1364 1366 1368 1370 1372 1375 1376 1375
1270 1265 1260 1254 1250 1245 1241 1236 1232 1232 1234 1237 1241 1245 1251 1256 1261 1265 1270 1275 1283 1292 1301 1310 1315 1319 1325 1330 1335 1340 1344 1348 1350 1353 1357 1360 1362 1363 1366 1369 1372 1371 1371
1271 1266 1261 1256 1251 1246 1241 1235 1230 1230 1232 1235 1238 1242 1246 1251 1255 1260 1266 1271 1278 1287 1297 1307 1312 1317 1321 1326 1332 1336 1340 1344 1346 1349 1352 1355 1358 1360 1363 1365 1366 1366 1368
1272 1268 1263 1259 1253 1248 1244 1239 1235 1234 1234 1236 1239 1242 1245 1248 1253 1258 1263 1267 1272 1280 1289 1300 1307 1313 1318 1323 1328 1333 1336 1339 1342 1345 1349 1352 1355 1356 1358 1360 1362 1364 1364
1274 1270 1266 1261 1257 1252 1247 1245 1242 1240 1239 1239 1241 1243 1245 1248 1253 1257 1261 1264 1269 1274 1282 1293 1302 1309 1314 1320 1324 1328 1331 1335 1339 1342 1345 1349 1350 1352 1356 1357 1358 1359 1360
1276 1272 1269 1265 1260 1256 1252 1249 1248 1247 1245 1245 1245 1246 1248 1251 1254 1257 1261 1264 1267 1272 1278 1288 1298 1305 1311 1316 1321 1325 1328 1331 1334 1338 1342 1345 1347 1350 1352 1351 1353 1354 1355